Weather History for Millinocket, ME

Change the Weather History Date:

Tuesday, February 11, 2014

  Actual Average Record
Temperature  
Mean Temperature 3 °F 17 °F  
Max Temperature 14 °F 27 °F 50 °F (1955)
Min Temperature -9 °F 7 °F -28 °F (1948)
Degree Days  
Heating Degree Days 62 48  
Month to date heating degree days 572 543  
Since 1 July heating degree days 5250 5289  
Cooling Degree Days 0 0  
Month to date cooling degree days 0 0  
Year to date cooling degree days 0 0  
Moisture  
Dew Point -7 °F    
Average Humidity 68    
Maximum Humidity 87    
Minimum Humidity 48    
Precipitation  
Precipitation T in 0.07 in 1.45 in (1952)
Month to date precipitation 0.34 0.66  
Year to date precipitation 3.92 3.59  
Sea Level Pressure  
Sea Level Pressure 30.23 in    
Wind  
Wind Speed 8 mph (WNW)    
Max Wind Speed 20 mph    
Max Gust Speed 26 mph    
Visibility 9 miles    
Events      
T = Trace of Precipitation, MM = Missing Value Source: NWS Daily Summary

Daily Weather History Graph

Daily Weather History Graph

Search for Another Location

Airport:

Trip Planner

Search our weather history database for the weather conditions in past years. The results will help you decide how hot, cold, wet, or windy it might be!

Date:

Astronomy

Feb. 11, 2014 Rise Set
Actual Time 6:42 AM EST 4:55 PM EST
Civil Twilight 6:12 AM EST 5:26 PM EST
Nautical Twilight 5:37 AM EST 6:01 PM EST
Astronomical Twilight 5:02 AM EST 6:36 PM EST
Moon 2:09 PM EST (2/11) 4:21 AM EST (2/11)
Length of Visible Light 11h 14m
Length of Day
10h 12m
Waxing Gibbous, 90% of the Moon is Illuminated
Feb 11
Waxing Gibbous
Feb 14
Full
Feb 22
Last Quarter
Mar 1
New
Mar 8
First Quarter

Hourly Weather History & Observations

Time (EST) Temp. Windchill Dew Point Humidity Pressure Visibility Wind Dir Wind Speed Gust Speed Precip Events Conditions
12:53 AM 1.9 °F -9.2 °F -5.1 °F 72% 30.15 in 10.0 mi NW 5.8 mph - N/A   Clear
1:53 AM -0.9 °F -8.9 °F -6.0 °F 79% 30.15 in 10.0 mi NW 3.5 mph - N/A   Clear
2:53 AM -2.9 °F - -7.1 °F 82% 30.15 in 10.0 mi Calm Calm - N/A   Clear
3:53 AM -6.0 °F - -11.0 °F 79% 30.16 in 10.0 mi Calm Calm - N/A   Clear
4:53 AM -6.0 °F - -11.0 °F 79% 30.17 in 10.0 mi Calm Calm - N/A   Clear
5:53 AM -6.0 °F - -11.9 °F 75% 30.18 in 10.0 mi Calm Calm - N/A   Partly Cloudy
6:53 AM -8.0 °F - -13.0 °F 79% 30.20 in 10.0 mi Calm Calm - N/A   Clear
7:53 AM -4.0 °F -12.4 °F -8.0 °F 83% 30.22 in 5.0 mi WNW 3.5 mph - N/A   Clear
8:03 AM -2.0 °F -10.1 °F -6.0 °F 83% 30.16 in 2.5 mi Variable 3.5 mph - N/A   Clear
8:10 AM -2.0 °F - -5.1 °F 87% 30.17 in 8.0 mi Calm Calm - N/A   Clear
8:53 AM 8.1 °F -4.3 °F -0.9 °F 67% 30.21 in 10.0 mi West 8.1 mph - N/A   Clear
9:53 AM 10.0 °F -3.7 °F -2.0 °F 58% 30.21 in 10.0 mi West 10.4 mph 18.4 mph N/A   Scattered Clouds
10:53 AM 10.9 °F -5.4 °F -2.9 °F 54% 30.22 in 10.0 mi WNW 15.0 mph - N/A   Mostly Cloudy
11:53 AM 12.0 °F -2.0 °F -2.9 °F 51% 30.20 in 10.0 mi WNW 11.5 mph 20.7 mph 0.00 in   Partly Cloudy
12:53 PM 12.0 °F -2.0 °F -4.0 °F 49% 30.20 in 10.0 mi WNW 11.5 mph 21.9 mph N/A   Overcast
1:53 PM 12.9 °F -0.9 °F -4.0 °F 47% 30.20 in 10.0 mi WNW 11.5 mph 20.7 mph N/A   Overcast
2:53 PM 12.9 °F -1.6 °F -4.0 °F 47% 30.21 in 10.0 mi WNW 12.7 mph 18.4 mph N/A   Overcast
3:53 PM 10.9 °F -6.5 °F -5.1 °F 49% 30.24 in 10.0 mi WNW 17.3 mph 25.3 mph N/A   Overcast
4:53 PM 8.1 °F -7.0 °F -7.1 °F 50% 30.27 in 10.0 mi West 11.5 mph 21.9 mph N/A   Scattered Clouds
5:53 PM 7.0 °F -8.3 °F -8.0 °F 51% 30.29 in 10.0 mi WNW 11.5 mph 21.9 mph N/A   Clear
6:53 PM 5.0 °F -8.1 °F -9.0 °F 52% 30.30 in 10.0 mi West 8.1 mph 17.3 mph N/A   Clear
7:53 PM 3.9 °F -11.3 °F -9.0 °F 55% 30.31 in 10.0 mi WNW 10.4 mph 18.4 mph N/A   Clear
8:53 PM 3.9 °F -10.4 °F -9.9 °F 53% 30.32 in 10.0 mi WNW 9.2 mph 19.6 mph N/A   Clear
9:53 PM 3.9 °F -13.7 °F -9.9 °F 53% 30.33 in 10.0 mi WNW 13.8 mph 25.3 mph N/A   Clear
10:53 PM 3.9 °F -11.3 °F -9.9 °F 53% 30.35 in 10.0 mi West 10.4 mph 19.6 mph N/A   Clear
11:53 PM 3.0 °F -11.5 °F -9.9 °F 55% 30.36 in 10.0 mi WNW 9.2 mph - N/A   Clear